Погода в Ижме

Поиск расширенной информации на нашем сайте:

Полезная информация:

Новости сайта



02.01.2020
Опубликован Долгосрочный прогноз погоды по городам России и ближнего зарубежья на январь 2020 года.
Карты: Прогноз на январь и февраль 2020 года, Сравнение прогнозируемой аномалии приземной температуры воздуха на январь 2020 года по разным моделям.




Погода в Ижме - сегодня

Время (UTC), дата Ветер
(°,м/с) 
Видим.   Явления Облачность Т
(°С)
Тd
(°С)
f(%) Тe
(°С)
Pmin
(гПа)
dP
(гПа)
Po
(мм)
O2
(г/м3)
Тmin Tmax R s Состояние
почвы
03 29.11.20 200 (Ю) 20000 м    4/0 верхняя 
[Cs]
-14.8 -16.8 85 -17  1044.7  0.1  779  334  -15.4      равномерный
сухой снег
100% 
06 29.11.20 190 (Ю) 20000 м    8/0 верхняя 
[Ci fib]
-14.8 -16.8 85 -17  1044.9  0.2  780  334           
09 29.11.20 180 (Ю) 20000 м    10/0 верхняя 
[Ci fib]
-13 -15 85 -15  1045.3  0.4  780  331           
12 29.11.20 180 (Ю) 20000 м    4/0 верхняя 
[Ci fib]
-13.2 -15.2 85 -17  1045.2  -0.1  780  332           
15 29.11.20 180 (Ю) 20000 м    10/0 средняя 
[As trans]
-13.6 -15.6 85 -17  1044.7  -0.5  779  332    -12.9       
18 29.11.20 180 (Ю) 20000 м    10/0 средняя 
[As trans]
-14.2 -16.2 85 -18  1043.5  -1.2  779  332           
21 29.11.20 180 (Ю) 20000 м    10/0 средняя 
[As trans]
-14 -16 85 -18  1043.2  -0.3  778  332           
00 30.11.20 180 (Ю) 20000 м    10/10 600 м 
[Sc]
-12.6 -14.6 85 -17  1041.8  -1.3  777  330           
03 30.11.20 180 (Ю) 20000 м  слаб. снег  10/10 270 м 
[Frnb]
-10.8 -12.8 85 -14  1041.3  -0.5  777  327  -14.3    0.0  равномерный
сухой снег
100% 
06 30.11.20 190 (Ю) 20000 м  {снег}  10/10 210 м 
[Frnb]
-9 -10.1 92 -13  1040.6  -0.7  776  325           
09 30.11.20 200 (Ю) 20000 м    10/10 480 м 
[Sc]
-6.6 -8.2 88 -10  1039.5  -0.9  776  321           
12 30.11.20 190 (Ю) 5{10}  20000 м    10/10 1020 м 
[Sc]
-5.1 -6.8 88 -9  1038.8  -0.7  775  319           
15 30.11.20 190 (Ю) 20000 м    10/5 600 м средняя 
[Sc|Ac As]
-4.7 -6 91 -8  1037.8  -1  774  318    -4.7  0.0     
18 30.11.20 190 (Ю) 20000 м    10/10 240 м 
[Frnb|Ns]
-3.5 -4.9 90 -6  1037  -0.8  774  316           
21 30.11.20 190 (Ю) 20000 м    10/8 210 м средняя 
[Frnb|As op]
-2.9 -4.2 91 -5  1036.2  -0.8  773  315           
00 01.12.20 190 (Ю) 20000 м    10/6 300 м средняя 
[Frnb|As op]
-2.5 -4.4 87 -5  1034.6  -1.6  772  315           
03 01.12.20 200 (Ю) 20000 м    10/8 360 м средняя 
[Frnb|As op]
-4.3 -6.2 87 -7  1033  -1.6  771  316  -4.8      равномерный
сухой снег
100% 
06 01.12.20 190 (Ю) 6-10{12}  20000 м    10/10 270 м 
[Frnb]
-4.8 -6.8 86 -9  1032  -1  770  317  -4.9         
09 01.12.20 200 (Ю) 5{13}  20000 м    10/10 300 м 
[Frnb]
-3.7 -5.9 85 -7  1031.2  -0.8  770  315           
12 01.12.20 200 (Ю) 5{10}  20000 м    10/10 360 м 
[Sc]
-3.5 -6.2 82 -7  1029.7  -1.5  768  314           
15 01.12.20 200 (Ю) 6-10{12}  20000 м    10/10 360 м 
[Sc]
-3.9 -6.8 80 -8  1028.6  -1.1  768  315    -3.4       
21 01.12.20 220 (ЮЗ) 5{11}  20000 м  слаб. снег  10/5 1000 м средняя 
[Sc|As op]
-4.2 -7.6 77 -8  1027.7  -0.1  767  315           
00 02.12.20 220 (ЮЗ) 20000 м  {снег}  10/0 средняя 
[As op]
-4.3 -7.7 77 -7  1028.1  0.4  767  315           
03 02.12.20 220 (ЮЗ) н/о    н/о 
-4.2 -7.2 80 -7  1028.3  0.1  767  315  -4.8         
06 02.12.20 210 (ЮЗ) 20000 м    10/10 360 м 
[Sc]
-4 -7 80 -7  1028.5  0.2  767  315           
Время (UTC), дата Ветер
(°,м/с) 
Видим.   Явления Облачность Т
(°С)
Тd
(°С)
f(%) Тe
(°С)
Pmin
(гПа)
dP
(гПа)
Po
(мм)
O2
(г/м3)
Тmin Tmax R s Состояние
почвы

Для получения пояснительной информации подведите курсор к названию столбца.

ПОГОДА в Ижме - архив

Всё, что Вы хотите узнать о погоде в Ижме - удобно и подробно!

Выберите нужную дату (начиная с 1 января 2019* года) и нажмите кнопку "Найти".
Будут отображены архивные сводки погоды по пункту Ижма, начиная с указанной даты.


Отображать данные в формате CSV (для использования в таблицах Excel)


Внимание! Наш архив погоды предназначен исключительно для личного некоммерческого использования в познавательных целях. Если Вам необходимы официальные справки о состоянии погоды (для производственных, юридических, коммерческих и т.п. целей), обращайтесь в органы Росгидромета.

*Примечание: данная дата относится к архиву по метеостанциям СССР (Россия, СНГ, Балтия).
Архив по метеостанциям Зарубежной Европы и Азии (кроме Китая) хранится 10 дней, по другим регионам земного шара (Китай, Африка, Америка, Австралия, Океания) - 1 день.

Ижма - район местоположения метеостанции


Название, широта, долгота, высота метеостанции:
Ижма 65°ш. 53.9°д. 38 м над ур. моря [Российская Федерация]

Дополнительная информация

В oтличие oт бoльшинства пoгoдных сайтoв мы публикуем пoдрoбную метеoинфoрмацию в детальнoм прoфессиoнальнoм фoрмате.

Характеристики температуры и влажнoсти вoздуха измеряются на высoте 2 м в тени вдали oт зданий и деревьев.
Скoрoсть ветра измеряется на высoте 10 м (на урoвне рoста челoвека скoрoсть ветра ниже в 1.5-2 раза). Если метеoстанция нахoдится в гoрoде или в лесу, тo скoрoсть ветра занижена на 2-4 м/с пo сравнению с oткрытым местoм. Скoрoсть ветра над акватoриями крупных рек и oзёр, а также на вершинах хoлмoв на 2-5 м/с выше, чем в oбычных услoвиях.
Атмoсфернoе давление в разных тoчках местнoсти мoжет значительнo oтличаться oт давления на метеoстанции, в зависимoсти oт услoвий рельефа (при пoдъёме на 10 м давление пoнижается примернo на 1 мм рт.ст.).